Date,TemperatureHighF,TemperatureAvgF,TemperatureLowF,DewpointHighF,DewpointAvgF,DewpointLowF,HumidityHigh,HumidityAvg,HumidityLow,PressureMaxIn,PressureMinIn,WindSpeedMaxMPH,WindSpeedAvgMPH,GustSpeedMaxMPH,PrecipitationSumIn
2013-4-2,86.0,78.7,73.6,67.6,66.2,64.0,81,66,49,30.08,30.01,14,5,14,0.00
2013-4-3,82.6,76.8,67.6,70.2,68.3,65.5,94,76,62,30.07,29.99,20,6,21,0.00
2013-4-4,83.7,75.2,69.1,73.6,70.1,66.9,96,85,70,30.05,29.90,31,6,31,0.69
2013-4-5,71.8,69.0,66.4,70.5,66.7,64.6,96,92,86,30.00,29.84,17,6,18,0.21
2013-4-7,79.0,74.5,70.0,64.9,62.9,61.5,77,67,60,30.14,30.08,19,6,19,0.00
2013-4-8,81.0,72.4,61.3,65.1,62.0,56.3,96,72,48,30.14,30.05,16,4,17,0.00
2013-4-9,81.0,75.0,67.8,68.9,66.7,63.3,89,76,59,30.15,30.05,19,6,22,0.00
2013-4-10,80.6,74.4,72.3,72.7,68.2,66.2,84,81,77,30.11,30.04,21,4,21,0.00
2013-4-13,84.7,75.9,72.1,75.6,71.7,67.8,94,87,73,29.97,29.88,14,3,14,0.09
2013-4-14,85.1,78.7,72.0,76.3,73.7,70.0,98,85,68,29.97,29.89,20,6,20,0.00
2013-4-15,83.5,74.1,70.2,75.6,72.0,67.6,97,93,74,30.06,29.93,21,2,21,0.86
2013-4-16,85.8,77.6,71.1,76.5,72.8,70.2,98,86,68,30.12,30.02,20,5,20,0.03
2013-4-17,84.0,77.6,71.8,71.2,69.1,66.4,91,76,60,30.11,30.02,18,5,18,0.00
2013-4-18,85.1,79.3,73.9,74.3,71.1,67.8,86,77,64,30.06,29.98,16,6,18,0.00
2013-4-19,86.4,80.9,77.2,74.3,72.6,69.4,89,76,60,30.05,29.96,24,8,24,0.00
2013-4-20,90.9,79.5,72.3,76.1,72.9,69.6,97,81,53,30.04,29.96,23,4,24,0.02
2013-4-21,84.4,79.7,74.1,74.5,72.4,70.0,88,79,68,30.10,29.98,19,6,19,0.00
2013-4-22,75.9,73.4,72.1,71.8,70.7,68.9,95,91,84,30.04,29.98,14,4,14,0.01
2013-4-24,82.8,78.7,74.3,66.4,64.7,62.4,72,63,53,30.14,30.06,17,6,17,0.00
2013-4-25,83.1,75.9,70.0,65.5,62.9,60.3,78,65,49,30.20,30.08,18,4,18,0.00
2013-4-26,83.5,75.4,66.0,67.6,64.8,61.9,90,71,53,30.22,30.12,21,5,22,0.00
2013-4-27,79.9,74.2,70.0,65.8,63.8,61.9,78,70,59,30.21,30.12,23,5,23,0.00
2013-4-30,83.1,76.4,70.2,72.0,70.2,66.9,95,82,63,29.99,29.94,22,4,22,0.38